TimeCST,TemperatureF,Dew PointF,Humidity,Sea Level PressureIn,VisibilityMPH,Wind Direction,Wind SpeedMPH,Gust SpeedMPH,PrecipitationIn,Events,Conditions,WindDirDegrees,DateUTC
12:23 AM,33.8,30.2,87,30.27,6.0,ESE,5.8,-,0.00,Rain,Light Rain,110,2013-11-25 06:23:00
12:35 AM,32.0,30.2,93,30.27,4.0,East,4.6,-,0.00,Rain,Light Freezing Rain,100,2013-11-25 06:35:00
12:51 AM,32.0,30.0,92,30.31,4.0,East,4.6,-,0.00,Rain,Light Freezing Rain,100,2013-11-25 06:51:00
1:03 AM,32.0,30.2,93,30.24,6.0,ENE,3.5,-,0.01,Rain,Light Freezing Rain,70,2013-11-25 07:03:00
1:19 AM,32.0,30.2,93,30.24,10.0,East,3.5,-,0.01,,Overcast,80,2013-11-25 07:19:00
1:32 AM,32.0,30.2,93,30.24,10.0,Calm,Calm,-,0.01,,Overcast,0,2013-11-25 07:32:00
1:51 AM,32.0,30.0,92,30.27,10.0,Calm,Calm,-,0.01,,Overcast,0,2013-11-25 07:51:00
2:00 AM,32.0,30.2,93,30.23,10.0,Calm,Calm,-,N/A,,Overcast,0,2013-11-25 08:00:00
2:16 AM,32.0,30.2,93,30.21,10.0,NE,3.5,-,N/A,,Overcast,50,2013-11-25 08:16:00
2:51 AM,32.0,30.9,96,30.25,10.0,SE,4.6,-,N/A,,Overcast,130,2013-11-25 08:51:00
3:35 AM,33.8,30.2,87,30.20,10.0,Calm,Calm,-,N/A,,Overcast,0,2013-11-25 09:35:00
3:51 AM,33.1,30.9,92,30.24,10.0,Calm,Calm,-,N/A,,Overcast,0,2013-11-25 09:51:00
4:51 AM,33.1,30.9,92,30.22,10.0,Calm,Calm,-,N/A,,Overcast,0,2013-11-25 10:51:00
5:51 AM,33.1,32.0,96,30.21,10.0,Calm,Calm,-,N/A,,Overcast,0,2013-11-25 11:51:00
6:51 AM,34.0,32.0,92,30.20,10.0,Calm,Calm,-,N/A,,Overcast,0,2013-11-25 12:51:00
7:30 AM,33.8,32.0,93,30.16,10.0,Calm,Calm,-,N/A,,Overcast,0,2013-11-25 13:30:00
7:51 AM,33.1,32.0,96,30.20,9.0,Calm,Calm,-,N/A,,Overcast,0,2013-11-25 13:51:00
8:51 AM,35.1,32.0,89,30.21,10.0,Calm,Calm,-,N/A,,Overcast,0,2013-11-25 14:51:00
9:17 AM,35.6,32.0,87,30.18,10.0,SW,4.6,-,N/A,,Overcast,220,2013-11-25 15:17:00
9:51 AM,36.0,33.1,89,30.22,10.0,West,4.6,-,N/A,,Overcast,260,2013-11-25 15:51:00
10:16 AM,35.6,32.0,87,30.18,10.0,West,3.5,-,N/A,,Overcast,260,2013-11-25 16:16:00
10:51 AM,37.0,32.0,82,30.22,10.0,WNW,4.6,-,N/A,,Overcast,300,2013-11-25 16:51:00
11:51 AM,37.9,33.1,83,30.20,10.0,West,8.1,-,N/A,,Overcast,270,2013-11-25 17:51:00
12:51 PM,39.0,34.0,82,30.16,10.0,NW,9.2,-,N/A,,Overcast,310,2013-11-25 18:51:00
1:15 PM,39.2,33.8,81,30.11,10.0,WNW,5.8,-,N/A,,Overcast,300,2013-11-25 19:15:00
1:36 PM,39.2,33.8,81,30.10,10.0,WNW,8.1,-,N/A,,Overcast,290,2013-11-25 19:36:00
1:51 PM,39.0,33.1,79,30.13,10.0,NW,8.1,-,N/A,,Overcast,310,2013-11-25 19:51:00
2:51 PM,39.0,33.1,79,30.14,10.0,WNW,8.1,-,N/A,,Overcast,300,2013-11-25 20:51:00
3:51 PM,37.9,33.1,83,30.14,10.0,NNW,12.7,-,N/A,,Overcast,330,2013-11-25 21:51:00
4:51 PM,37.9,33.1,83,30.17,10.0,NW,10.4,-,N/A,,Overcast,310,2013-11-25 22:51:00
5:43 PM,37.4,32.0,81,30.14,10.0,NW,9.2,-,N/A,,Overcast,310,2013-11-25 23:43:00
5:51 PM,37.9,33.1,83,30.18,10.0,NW,9.2,-,N/A,,Overcast,310,2013-11-25 23:51:00
6:51 PM,37.9,33.1,83,30.18,10.0,East,3.5,-,N/A,,Overcast,80,2013-11-26 00:51:00
7:51 PM,37.9,33.1,83,30.19,9.0,East,5.8,-,N/A,,Overcast,80,2013-11-26 01:51:00
8:08 PM,37.4,33.8,87,30.15,10.0,ENE,6.9,-,N/A,,Overcast,70,2013-11-26 02:08:00
8:51 PM,37.0,33.1,86,30.20,10.0,NE,6.9,-,N/A,,Overcast,40,2013-11-26 02:51:00
9:51 PM,37.9,33.1,83,30.20,10.0,NNE,9.2,-,N/A,,Overcast,20,2013-11-26 03:51:00
10:51 PM,37.9,33.1,83,30.21,10.0,NNE,9.2,-,N/A,,Overcast,30,2013-11-26 04:51:00
11:17 PM,37.4,33.8,87,30.19,10.0,NNE,5.8,-,N/A,,Overcast,30,2013-11-26 05:17:00
11:25 PM,37.4,33.8,87,30.19,10.0,NE,9.2,-,N/A,,Overcast,40,2013-11-26 05:25:00
11:51 PM,37.0,33.1,86,30.22,10.0,NE,6.9,-,N/A,,Overcast,40,2013-11-26 05:51:00